Location: *
(49.6619°S, 177.4603°W)
Time: 04:57:27
(UTC+00:00)

Cosmos 2221 - Pass Details

Date: 31 January 2023
Orbit: 588 x 611 km, 82.5° (Epoch: 01 April)

Event Time Altitude Azimuth Distance (km) Brightness Sun altitude
Exits shadow 10:16:51 35° 347° (NNW) 1,020 3.3 -18.9°
Maximum altitude 10:18:43 85° 260° (W) 634 2.5 -19.1°
Drops below altitude 10° 10:23:11 10° 171° (S) 2,006 6.0 -19.4°
Sets 10:25:26 0° 170° (S) 2,916 6.9 -19.5°
